Forecast Directory
U.S. Alerts
El Dorado Weather Logo
U.S. Radar Loop Conditions Map

U.S. Color Satellite North America Color Infrared Animated Satellite Loop

Interactive Wx Map Live U.S. Google Map Radar Thumbnail Image

US Precipitation 1 day, 24 hour precipitation map

US Temperatures US Conditions Map

US Climate Data US Conditions Map


NOAA NWS Hourly Roundups by Site
Regional Weather Roundup for Sacramento, CA
Select Site:  

000
ASUS46 KSTO 120515
RWRCA

NORTHERN AND CENTRAL CA REGIONAL WEATHER ROUNDUP
NATIONAL WEATHER SERVICE SACRAMENTO CA
1000 PM PDT TUE MAY 11 2021

NOTE: FAIR INDICATES FEW OR NO CLOUDS BELOW 12,000 FEET WITH NO
SIGNIFICANT WEATHER AND/OR OBSTRUCTIONS TO VISIBILITY.

CAZ001-003-120600-
NORTHWEST AREA

CITY           SKY/WX    TMP DP  RH WIND       PRES   REMARKS
CRESCENT CITY  CLEAR     49  44  83 N8        29.97R HAZE
UKIAH          CLEAR     69  38  32 CALM      29.91R
$$

CAZ006-505>513-120600-
BAY AREA

CITY           SKY/WX    TMP DP  RH WIND       PRES   REMARKS
SANTA ROSA     CLEAR     51  47  86 S5        29.92R
SAN RAFAEL     N/A       60  MM  MM MISG
NAPA           CLEAR     57  52  83 S3        29.91R
CONCORD        CLEAR     70  44  39 SW7       29.89R
OAKLAND CITY   N/A       54  MM  MM MISG
OAKLAND        PTCLDY    54  49  83 NW7       29.93R
SAN FRAN CITY  N/A       51  MM  94 MISG
SAN FRAN ARPT  PTCLDY    54  48  80 NW10      29.92R
LIVERMORE      CLEAR     69  34  27 NW8       29.90R
HAYWARD        CLEAR     55  48  77 NW6       29.92R
SAN JOSE ARPT  CLEAR     62  51  67 NW10      29.92R
$$
CAZ034-037-514>518-120600-
CENTRAL COAST

CITY           SKY/WX    TMP DP  RH WIND       PRES   REMARKS
WATSONVILLE    CLOUDY    51  50  96 CALM      29.96R FOG
SALINAS        CLOUDY    53  50  89 NW8       29.95R FOG
MONTEREY       CLOUDY    54  50  86 CALM      29.96R
SAN LUIS OBISP CLOUDY    55  51  86 CALM      29.96R
SANTA MARIA    CLOUDY    53  50  89 CALM      29.96S FOG
HALF MOON BAY  FOG       48  48 100 S6        29.95S VSB 1/4
$$
CAZ015-016-120600-
NORTHERN SACRAMENTO VALLEY

CITY           SKY/WX    TMP DP  RH WIND       PRES   REMARKS
REDDING        CLEAR     70  45  40 NE5       29.84R
RED BLUFF      CLEAR     71  34  25 CALM      29.85R
OROVILLE       CLEAR     73  37  27 CALM      29.86R
$$
CAZ016>018-120600-
SOUTHERN SACRAMENTO VALLEY

CITY           SKY/WX    TMP DP  RH WIND       PRES   REMARKS
AUBURN         CLEAR     66  28  24 CALM      29.93R
BEALE AFB      CLEAR     74  34  23 E3        29.83R
LINCOLN        FAIR      64  39  39 CALM      29.84R
MARYSVILLE     CLEAR     73  42  32 S3        29.84R
SAC INTL ARPT  CLEAR     76  45  33 SW3       29.84R
MATHER AIRPORT CLEAR     73  43  33 SW8       29.84R
VACAVILLE      CLEAR     67  34  29 CALM      29.86R
$$
CAZ019>021-120600-
SAN JOAQUIN VALLEY

CITY           SKY/WX    TMP DP  RH WIND       PRES   REMARKS
STOCKTON       CLEAR     70  47  43 W9        29.86R
MODESTO        CLEAR     78  31  17 NW9       29.84R
MERCED         CLEAR     73  45  36 N9        29.84R
LEMOORE        CLEAR     70  40  33 NW8       29.85R
FRESNO         CLEAR     81  34  18 NW7       29.85R
HANFORD        CLEAR     74  44  34 NW6       29.85R
PORTERVILLE    CLEAR     71  46  40 S6        29.86R
BAKERSFIELD    CLEAR     82  35  18 N5        29.85R
$$
CAZ011-012-071-120600-
NORTHERN MOUNTAINS

CITY           SKY/WX    TMP DP  RH WIND       PRES   REMARKS
YREKA          CLEAR     62  36  37 N14       30.02R
MOUNT SHASTA   CLEAR     63  33  32 NE5       30.03R
ALTURAS        CLEAR     53  26  35 E5        30.07R
$$
CAZ011-012-071-120600-
SIERRA NEVADA MTNS

CITY           SKY/WX    TMP DP  RH WIND       PRES   REMARKS
BLUE CANYON    CLEAR     60  22  23 CALM      30.14R
TRUCKEE        CLEAR     45  30  57 SE3       30.17R
TAHOE VLY ARPT CLEAR     49  30  48 CALM      30.17R
MAMMOTH LAKES  FAIR      52  28  40 CALM      30.21R
$$


 

View Past Reports for Sacramento, CA.

Products Courtesy of NOAA-NWS
NWS Information Parsing Script by Ken True at Saratoga Weather - Script by SE Lincoln Weather.



Contact Us | Mobile
Never base any life decisions on weather information from this site or anywhere over the Internet.
Site is dedicated to our Lord & Savior Jesus Christ | Random Quotes of Jesus

Copyright © 2021 El Dorado Weather, Inc. | Site Designed By:  El Dorado Weather